TimeGMT,TemperatureF,Dew PointF,Humidity,Sea Level PressureIn,VisibilityMPH,Wind Direction,Wind SpeedMPH,Gust SpeedMPH,PrecipitationIn,Events,Conditions,WindDirDegrees,DateUTC
12:00 AM,41,35,73,29.88,12,SSW,8.9,,,,Partly Cloudy,200,2014-01-26 00:00:00
12:00 AM,41.0,35.6,81,29.86,6.2,SSW,9.2,-,N/A,,Mostly Cloudy,200,2014-01-26 00:00:00
12:30 AM,41.0,35.6,81,29.83,6.2,SSE,9.2,-,N/A,,Mostly Cloudy,160,2014-01-26 00:30:00
1:00 AM,41,35,71,29.83,12,SSE,8.9,,,,Overcast,160,2014-01-26 01:00:00
1:00 AM,41.0,35.6,81,29.80,6.2,SSE,9.2,-,N/A,,Mostly Cloudy,160,2014-01-26 01:00:00
1:30 AM,42.8,33.8,70,29.80,6.2,South,8.1,-,N/A,,Mostly Cloudy,180,2014-01-26 01:30:00
2:00 AM,43,37,72,29.79,12,South,8.9,,,,Overcast,170,2014-01-26 02:00:00
2:00 AM,42.8,37.4,81,29.77,6.2,South,8.1,-,N/A,,Mostly Cloudy,170,2014-01-26 02:00:00
2:30 AM,42.8,37.4,81,29.74,6.2,South,12.7,-,N/A,,Mostly Cloudy,170,2014-01-26 02:30:00
3:00 AM,43,37,72,29.71,12,SSE,11.2,,,,Overcast,150,2014-01-26 03:00:00
3:00 AM,42.8,37.4,81,29.68,6.2,SSE,10.4,-,N/A,,Mostly Cloudy,150,2014-01-26 03:00:00
3:30 AM,42.8,37.4,81,29.65,6.2,SSE,13.8,-,N/A,,Mostly Cloudy,150,2014-01-26 03:30:00
4:00 AM,42,38,83,29.60,12,SE,17.9,,,Rain,Light Rain,140,2014-01-26 04:00:00
4:00 AM,42.8,39.2,87,29.59,6.2,SE,17.3,-,N/A,Rain,Light Rain,140,2014-01-26 04:00:00
4:30 AM,44.6,39.2,81,29.53,6.2,SSE,13.8,-,N/A,Rain,Light Rain,160,2014-01-26 04:30:00
5:00 AM,43,40,87,29.51,5,South,17.9,,,Rain,Light Rain,180,2014-01-26 05:00:00
5:00 AM,42.8,41.0,93,29.50,5.0,South,17.3,31.1,N/A,Rain,Light Rain,180,2014-01-26 05:00:00
5:30 AM,42.8,41.0,93,29.44,5.0,South,19.6,-,N/A,Rain,Light Rain,170,2014-01-26 05:30:00
6:00 AM,43,40,87,29.39,5,South,17.9,,,Rain,Light Rain,170,2014-01-26 06:00:00
6:00 AM,42.8,41.0,93,29.39,5.0,South,18.4,-,N/A,Rain,Light Rain,170,2014-01-26 06:00:00
6:30 AM,44.6,41.0,87,29.33,5.0,South,18.4,33.4,N/A,Rain,Light Rain,180,2014-01-26 06:30:00
7:00 AM,46,41,77,29.27,14,South,22.4,,,Rain,Light Rain,170,2014-01-26 07:00:00
7:00 AM,46.4,41.0,81,29.27,6.2,South,23.0,42.6,N/A,Rain,Light Rain,170,2014-01-26 07:00:00
7:30 AM,46.4,42.8,87,29.21,6.2,South,21.9,-,N/A,Rain,Light Rain,180,2014-01-26 07:30:00
8:00 AM,48,44,81,29.17,16,South,22.4,,,Rain,Light Rain,190,2014-01-26 08:00:00
8:00 AM,48.2,44.6,87,29.15,6.2,South,20.7,-,N/A,Rain,Light Rain,190,2014-01-26 08:00:00
8:30 AM,50.0,44.6,82,29.12,6.2,SSW,27.6,41.4,N/A,Rain,Light Rain,200,2014-01-26 08:30:00
9:00 AM,48,46,89,29.15,4,SW,29.1,,,Rain,Light Rain,230,2014-01-26 09:00:00
9:00 AM,48.2,46.4,93,29.12,6.2,SW,29.9,43.7,N/A,Rain,Light Rain,230,2014-01-26 09:00:00
9:30 AM,46.4,41.0,81,29.15,6.2,WSW,31.1,43.7,N/A,Rain,Light Rain,250,2014-01-26 09:30:00
10:00 AM,46,37,62,29.16,12,West,33.6,,,Rain,Light Rain,260,2014-01-26 10:00:00
10:00 AM,46.4,37.4,71,29.15,6.2,West,33.4,48.3,N/A,,Partly Cloudy,260,2014-01-26 10:00:00
10:30 AM,44.6,35.6,71,29.15,6.2,WSW,32.2,43.7,N/A,,Scattered Clouds,250,2014-01-26 10:30:00
11:00 AM,45,36,62,29.16,12,West,33.6,,,Rain,Light Rain Showers,260,2014-01-26 11:00:00
11:00 AM,44.6,35.6,71,29.15,6.2,WSW,32.2,44.9,N/A,Rain,Light Rain Showers,250,2014-01-26 11:00:00
11:30 AM,44.6,35.6,71,29.12,6.2,WSW,29.9,-,N/A,,Partly Cloudy,250,2014-01-26 11:30:00
12:00 PM,43,33,58,29.16,11,West,31.3,,,Rain,Light Rain Showers,270,2014-01-26 12:00:00
12:00 PM,42.8,33.8,70,29.15,6.2,West,29.9,41.4,N/A,Rain,Light Rain Showers,270,2014-01-26 12:00:00
12:30 PM,41.0,33.8,76,29.15,6.2,WSW,31.1,43.7,N/A,Rain,Light Rain Showers,250,2014-01-26 12:30:00
1:00 PM,39,36,86,29.18,11,WSW,29.1,,,Rain,Light Rain Showers,250,2014-01-26 13:00:00
1:00 PM,39.2,35.6,87,29.15,6.2,WSW,32.2,-,N/A,Rain,Light Rain Showers,250,2014-01-26 13:00:00
1:30 PM,41.0,35.6,81,29.15,6.2,WSW,23.0,-,N/A,,Scattered Clouds,240,2014-01-26 13:30:00
2:00 PM,42,35,69,29.16,16,SW,22.4,,,Rain,Light Rain Showers,230,2014-01-26 14:00:00
2:00 PM,41.0,35.6,81,29.15,6.2,SW,23.0,-,N/A,,Mostly Cloudy,230,2014-01-26 14:00:00
2:30 PM,41.0,33.8,76,29.12,6.2,WSW,26.5,-,N/A,,Partly Cloudy,240,2014-01-26 14:30:00
3:00 PM,42,33,59,29.14,12,WSW,26.8,,,Rain,Light Rain Showers,240,2014-01-26 15:00:00
3:00 PM,41.0,33.8,76,29.12,6.2,SW,25.3,-,N/A,,Mostly Cloudy,230,2014-01-26 15:00:00
3:30 PM,41.0,32.0,70,29.12,6.2,WSW,24.2,-,N/A,,Partly Cloudy,240,2014-01-26 15:30:00
4:00 PM,40,30,58,29.15,12,WSW,33.6,,,Hail,Light Hail Showers,240,2014-01-26 16:00:00
4:00 PM,39.2,30.2,70,29.12,6.2,WSW,34.5,49.5,N/A,,Partly Cloudy,240,2014-01-26 16:00:00
4:30 PM,39.2,30.2,70,29.15,6.2,WSW,27.6,-,N/A,,Partly Cloudy,250,2014-01-26 16:30:00
5:00 PM,37,31,71,29.16,12,WSW,31.3,,,Rain,Light Rain Showers,240,2014-01-26 17:00:00
5:00 PM,37.4,30.2,75,29.12,6.2,WSW,31.1,43.7,N/A,,Partly Cloudy,240,2014-01-26 17:00:00
5:30 PM,35.6,32.0,87,29.15,6.2,WSW,27.6,39.1,N/A,,Partly Cloudy,240,2014-01-26 17:30:00
6:00 PM,36,31,73,29.16,12,WSW,26.8,,,Rain,Light Rain Showers,240,2014-01-26 18:00:00
6:00 PM,35.6,30.2,81,29.15,6.2,WSW,26.5,-,N/A,,Partly Cloudy,240,2014-01-26 18:00:00
6:30 PM,35.6,30.2,81,29.12,6.2,WSW,25.3,38.0,N/A,Rain,Light Rain Showers,240,2014-01-26 18:30:00
7:00 PM,36,31,75,29.15,12,WSW,22.4,,,Rain,Light Rain Showers,240,2014-01-26 19:00:00
7:00 PM,35.6,32.0,87,29.12,6.2,WSW,23.0,-,N/A,,Partly Cloudy,240,2014-01-26 19:00:00
7:30 PM,35.6,32.0,87,29.12,6.2,WSW,27.6,-,N/A,,Partly Cloudy,240,2014-01-26 19:30:00
8:00 PM,35,31,78,29.15,12,SW,17.9,,,Rain,Light Rain Showers,230,2014-01-26 20:00:00
8:00 PM,35.6,30.2,81,29.12,6.2,SW,18.4,29.9,N/A,,Partly Cloudy,230,2014-01-26 20:00:00
8:30 PM,35.6,30.2,81,29.12,6.2,SW,20.7,-,N/A,,Partly Cloudy,220,2014-01-26 20:30:00
9:00 PM,36,31,75,29.13,19,SW,20.1,,,,Partly Cloudy,220,2014-01-26 21:00:00
9:00 PM,37.4,30.2,75,29.12,6.2,SW,19.6,-,N/A,,Partly Cloudy,220,2014-01-26 21:00:00
9:30 PM,37.4,32.0,81,29.09,6.2,SW,24.2,35.7,N/A,,Partly Cloudy,230,2014-01-26 21:30:00
10:00 PM,36,32,79,29.11,19,SW,26.8,,,,Partly Cloudy,230,2014-01-26 22:00:00
10:00 PM,35.6,32.0,87,29.09,6.2,SW,26.5,38.0,N/A,,Scattered Clouds,230,2014-01-26 22:00:00
10:30 PM,35.6,32.0,87,29.06,6.2,SW,21.9,-,N/A,,Partly Cloudy,220,2014-01-26 22:30:00
11:00 PM,36,32,78,29.09,19,SW,24.6,,,,Partly Cloudy,220,2014-01-26 23:00:00
11:00 PM,35.6,32.0,87,29.06,6.2,SW,25.3,40.3,N/A,,Scattered Clouds,220,2014-01-26 23:00:00
11:30 PM,35.6,32.0,87,29.06,6.2,SW,24.2,36.8,N/A,,Mostly Cloudy,220,2014-01-26 23:30:00